テナグラ彗星

C/2014 F2 ( Tenagra )

English version
Home page
Updated on December 31, 2015

---------------------------------------------------------------------

・ プロフィール

発見日 2014年3月31日
発見光度 19.8等
発見者 M. Schwartz and P. R. Holvorcem (Tenagra III, near Nogales, AZ, U.S.A.)

・ 写真集

・ 軌道要素

Epoch 2015 Jan. 18.0 TT = JDT 2457040.5
T 2015 Jan. 2.37116 TT                                  MPCW
q   4.3143911            (2000.0)            P               Q
z  +0.0067901      Peri.   86.05150     -0.48716845     +0.01100558
 +/-0.0000011      Node   267.44802     -0.39019292     +0.89182039
e   0.9707049      Incl.  119.06070     +0.78129149     +0.45225576
From 284 observations 2014 Mar. 31-2015 Dec. 10, mean residual 0".5.

・ 光度変化

        m1 = 8.5 + 5 logΔ + 10.0 log r

---------------------------------------------------------------------

軌道要素はM.P.E.C. 2015-Y73に掲載されたものです。
光度グラフはComet for Windowsで作成したものです。

---------------------------------------------------------------------

Copyright(C) Seiichi Yoshida (comet@aerith.net). All rights reserved.